GW6623 Weather Reports


time (UTC)temp
F
wind
direction
speed
knots
gust
knots
rain 1hr
in
rain 24hr
in
rain mn
in
humidity
%
barometer
mb
20260906223700 81 204 1.7 3.5 0.00 0.00 0.00 20 1015.4
20260906223201 81 181 0.9 5.2 0.00 0.00 0.00 19 1015.5
20260906222659 82 132 0.0 2.6 0.00 0.00 0.00 21 1015.4
20260906222157 82 116 0.9 3.5 0.00 0.00 0.00 21 1015.4
20260906221656 82 190 3.5 7.0 0.00 0.00 0.00 19 1015.5
20260906221150 82 189 2.6 7.0 0.00 0.00 0.00 20 1015.5
20260906220646 82 203 1.7 2.6 0.00 0.00 0.00 21 1015.5
20260906220141 82 167 3.5 3.5 0.00 0.00 0.00 19 1015.9
20260906215640 83 203 2.6 14.8 0.00 0.00 0.00 18 1015.9
20260906215139 83 126 2.6 5.2 0.00 0.00 0.00 19 1015.6
20260906214637 83 168 2.6 5.2 0.00 0.00 0.00 18 1015.5
20260906214132 83 136 3.5 7.0 0.00 0.00 0.00 18 1015.5
20260906213631 84 124 2.6 3.5 0.00 0.00 0.00 20 1015.7
20260906213126 84 159 2.6 5.2 0.00 0.00 0.00 18 1015.5
20260906212624 84 180 1.7 6.1 0.00 0.00 0.00 18 1015.3
20260906212120 86 198 1.7 6.1 0.00 0.00 0.00 19 1015.4
20260906211619 87 182 1.7 3.5 0.00 0.00 0.00 17 1015.3
20260906211114 87 128 2.6 6.1 0.00 0.00 0.00 19 1015.6
20260906210610 87 161 2.6 5.2 0.00 0.00 0.00 19 1015.5
20260906210105 87 177 1.7 2.6 0.00 0.00 0.00 17 1015.6
20260906205600 87 188 1.7 3.5 0.00 0.00 0.00 19 1015.5
20260906205056 88 135 1.7 2.6 0.00 0.00 0.00 17 1015.9
20260906204555 89 183 0.9 1.7 0.00 0.00 0.00 16 1015.7
20260906204051 89 132 0.0 1.7 0.00 0.00 0.00 15 1016.0
20260906203549 89 181 1.7 2.6 0.00 0.00 0.00 17 1015.7
20260906203045 89 181 1.7 8.7 0.00 0.00 0.00 19 1015.7
20260906202541 89 142 1.7 5.2 0.00 0.00 0.00 17 1015.6
20260906202036 88 157 0.9 1.7 0.00 0.00 0.00 17 1015.9
20260906201536 88 186 3.5 5.2 0.00 0.00 0.00 18 1016.0
20260906201036 87 147 0.9 2.6 0.00 0.00 0.00 18 1016.0
20260906200532 88 193 3.5 5.2 0.00 0.00 0.00 15 1015.9
20260906200028 88 183 0.9 1.7 0.00 0.00 0.00 18 1016.0
20260906195523 87 162 1.7 7.0 0.00 0.00 0.00 18 1016.3
20260906195019 87 204 1.7 5.2 0.00 0.00 0.00 18 1016.3
20260906194515 88 227 2.6 7.8 0.00 0.00 0.00 17 1016.4
20260906194010 88 207 3.5 5.2 0.00 0.00 0.00 19 1016.3
20260906193510 88 194 0.9 2.6 0.00 0.00 0.00 21 1016.8
20260906193005 89 195 2.6 5.2 0.00 0.00 0.00 17 1016.4
20260906192501 89 204 1.7 2.6 0.00 0.00 0.00 20 1016.6
20260906191959 88 192 0.9 1.7 0.00 0.00 0.00 21 1016.7
20260906191454 88 196 1.7 2.6 0.00 0.00 0.00 16 1017.1
20260906190954 88 179 0.9 1.7 0.00 0.00 0.00 22 1017.0
20260906190453 89 251 2.6 3.5 0.00 0.00 0.00 21 1017.3
20260906185948 88 104 0.0 0.9 0.00 0.00 0.00 23 1017.5
20260906185447 87 164 0.0 1.7 0.00 0.00 0.00 21 1017.4
20260906184946 87 141 0.0 0.9 0.00 0.00 0.00 21 1017.6
20260906184442 86 72 0.9 2.6 0.00 0.00 0.00 23 1017.5
20260906183937 86 140 0.0 2.6 0.00 0.00 0.00 22 1017.7
20260906183433 87 120 0.0 0.9 0.00 0.00 0.00 23 1017.7
20260906182928 86 122 0.0 1.7 0.00 0.00 0.00 25 1017.7
20260906182424 86 118 0.0 0.9 0.00 0.00 0.00 20 1017.7
20260906181919 86 14 0.9 1.7 0.00 0.00 0.00 24 1017.8
20260906181415 84 138 0.0 0.9 0.00 0.00 0.00 26 1018.4
20260906180911 84 62 0.9 1.7 0.00 0.00 0.00 22 1018.4
20260906180405 82 163 0.0 0.9 0.00 0.00 0.00 27 1018.5
20260906175903 82 156 0.9 1.7 0.00 0.00 0.00 23 1018.8
20260906175358 82 113 0.0 0.9 0.00 0.00 0.00 24 1018.7
20260906174857 82 87 0.9 1.7 0.00 0.00 0.00 28 1019.0
20260906174356 81 218 0.9 0.9 0.00 0.00 0.00 26 1019.2
20260906173851 80 46 0.9 0.9 0.00 0.00 0.00 25 1019.1
20260906173347 79 26 1.7 1.7 0.00 0.00 0.00 28 1019.2
20260906172846 79 219 0.9 1.7 0.00 0.00 0.00 26 1019.5
20260906172342 79 267 0.9 1.7 0.00 0.00 0.00 30 1019.5
20260906171837 79 176 0.9 1.7 0.00 0.00 0.00 29 1019.5
20260906171338 78 146 0.0 2.6 0.00 0.00 0.00 29 1019.7
20260906170833 77 123 0.0 0.9 0.00 0.00 0.00 24 1019.6
20260906170329 78 75 0.9 1.7 0.00 0.00 0.00 27 1020.0
20260906165825 79 122 0.0 0.9 0.00 0.00 0.00 27 1019.8
20260906165324 79 227 0.0 1.7 0.00 0.00 0.00 27 1020.0
20260906164820 78 143 0.9 1.7 0.00 0.00 0.00 31 1020.2
20260906164319 78 135 0.0 1.7 0.00 0.00 0.00 32 1020.2
20260906163815 78 142 0.0 1.7 0.00 0.00 0.00 31 1020.2
20260906163311 76 152 0.0 0.9 0.00 0.00 0.00 34 1020.0
20260906162809 75 154 0.9 2.6 0.00 0.00 0.00 34 1020.4
20260906162308 74 80 0.9 0.9 0.00 0.00 0.00 34 1020.2
20260906161803 74 138 0.9 3.5 0.00 0.00 0.00 32 1020.2
20260906161302 73 138 0.0 1.7 0.00 0.00 0.00 33 1020.4
20260906160801 73 140 0.0 0.9 0.00 0.00 0.00 33 1020.3
20260906160255 73 155 0.9 0.9 0.00 0.00 0.00 35 1020.7
20260906155753 73 197 1.7 1.7 0.00 0.00 0.00 36 1020.7
20260906155248 71 147 0.0 0.9 0.00 0.00 0.00 37 1020.2
20260906154743 71 119 0.0 0.0 0.00 0.00 0.00 37 1020.4
20260906154238 70 127 0.9 0.9 0.00 0.00 0.00 40 1020.5
20260906153737 70 127 0.0 0.0 0.00 0.00 0.00 39 1020.4
20260906153231 69 135 0.0 0.0 0.00 0.00 0.00 41 1020.4
20260906152726 68 145 0.0 0.9 0.00 0.00 0.00 41 1020.5
20260906152221 67 109 0.0 0.0 0.00 0.00 0.00 43 1020.7
20260906151720 64 129 0.0 0.0 0.00 0.00 0.00 44 1020.7
20260906151216 62 106 0.0 0.9 0.00 0.00 0.00 51 1020.7
20260906150712 61 113 0.0 0.9 0.00 0.00 0.00 48 1020.9
20260906150207 60 142 0.0 0.0 0.00 0.00 0.00 52 1020.8
20260906145706 59 143 0.0 0.0 0.00 0.00 0.00 51 1020.8
20260906145206 58 154 0.0 0.9 0.00 0.00 0.00 58 1020.9
20260906144700 57 149 0.0 0.0 0.00 0.00 0.00 63 1020.8
20260906144155 56 153 0.0 0.0 0.00 0.00 0.00 64 1021.1
20260906143654 55 164 0.0 0.9 0.00 0.00 0.00 60 1020.9
20260906143152 54 145 0.0 0.9 0.00 0.00 0.00 64 1020.9
20260906142651 53 135 0.0 0.0 0.00 0.00 0.00 70 1020.7
20260906142147 52 139 0.0 0.0 0.00 0.00 0.00 69 1021.1
20260906141645 51 139 0.0 0.0 0.00 0.00 0.00 71 1020.9
20260906141141 50 114 0.0 0.0 0.00 0.00 0.00 73 1020.9
20260906140639 50 148 0.0 0.0 0.00 0.00 0.00 74 1020.8
20260906140135 49 157 0.0 0.0 0.00 0.00 0.00 76 1021.0
20260906135632 48 138 0.0 0.0 0.00 0.00 0.00 77 1020.8
20260906135128 48 159 0.0 0.0 0.00 0.00 0.00 75 1021.0
20260906134623 46 169 0.0 0.9 0.00 0.00 0.00 77 1020.9
20260906134118 45 194 0.0 0.9 0.00 0.00 0.00 79 1020.8
20260906133614 44 129 0.0 0.0 0.00 0.00 0.00 81 1020.9
20260906133108 43 140 0.0 0.0 0.00 0.00 0.00 82 1020.8
20260906132603 43 154 0.0 0.0 0.00 0.00 0.00 83 1020.8
20260906132059 43 133 0.0 0.9 0.00 0.00 0.00 85 1020.9
20260906131554 42 137 0.0 0.0 0.00 0.00 0.00 83 1020.7
20260906131050 42 155 0.0 0.0 0.00 0.00 0.00 82 1020.5
20260906130549 42 153 0.0 0.0 0.00 0.00 0.00 82 1020.5
20260906130045 42 173 0.0 0.9 0.00 0.00 0.00 80 1020.8
20260906125542 42 156 0.0 0.9 0.00 0.00 0.00 81 1020.4
20260906125042 42 141 0.0 0.0 0.00 0.00 0.00 83 1020.4
20260906124538 42 133 0.0 0.0 0.00 0.00 0.00 82 1020.4
20260906124033 43 155 0.0 0.0 0.00 0.00 0.00 79 1020.3
20260906123532 43 173 0.0 0.0 0.00 0.00 0.00 79 1020.4
20260906123027 43 173 0.0 0.0 0.00 0.00 0.00 80 1020.4
20260906122526 43 206 0.0 0.0 0.00 0.00 0.00 82 1020.7
20260906122023 43 185 0.0 0.9 0.00 0.00 0.00 81 1020.1
20260906121519 43 163 0.0 0.0 0.00 0.00 0.00 80 1020.4
20260906121015 43 137 0.0 0.9 0.00 0.00 0.00 81 1020.5
20260906120510 43 128 0.0 0.0 0.00 0.00 0.00 84 1020.4
20260906120008 43 132 0.0 0.0 0.00 0.00 0.00 83 1020.5
20260906115508 43 154 0.0 0.0 0.00 0.00 0.00 82 1020.3
20260906115008 44 140 0.0 0.0 0.00 0.00 0.00 80 1020.4
20260906114502 45 134 0.0 0.0 0.00 0.00 0.00 77 1020.2
20260906113958 45 119 0.0 0.0 0.00 0.00 0.00 77 1020.3
20260906113456 44 191 0.0 0.9 0.00 0.00 0.00 77 1020.1
20260906112952 44 132 0.0 0.0 0.00 0.00 0.00 78 1020.3
20260906112447 44 139 0.0 0.0 0.00 0.00 0.00 77 1020.2
20260906111943 44 130 0.0 0.0 0.00 0.00 0.00 77 1020.1
20260906111442 45 171 0.0 0.9 0.00 0.00 0.00 76 1020.1
20260906110937 45 168 0.0 0.9 0.00 0.00 0.00 76 1020.1
20260906110433 45 148 0.0 0.0 0.00 0.00 0.00 76 1020.2
20260906105932 45 130 0.0 0.0 0.00 0.00 0.00 76 1020.1
20260906105428 46 153 0.0 0.0 0.00 0.00 0.00 76 1020.0
20260906104924 46 154 0.0 0.0 0.00 0.00 0.00 75 1020.1
20260906104422 46 156 0.0 0.0 0.00 0.00 0.00 73 1020.1
20260906103921 46 158 0.0 0.0 0.00 0.00 0.00 74 1019.8
20260906103419 46 144 0.0 0.0 0.00 0.00 0.00 74 1019.7
20260906102915 46 112 0.0 0.0 0.00 0.00 0.00 74 1019.8
20260906102415 46 134 0.0 0.0 0.00 0.00 0.00 74 1019.8
20260906101909 46 123 0.0 0.0 0.00 0.00 0.00 76 1019.7
20260906101405 46 131 0.0 0.9 0.00 0.00 0.00 76 1019.8
20260906100900 46 155 0.0 0.0 0.00 0.00 0.00 75 1019.8
20260906100359 46 134 0.0 0.0 0.00 0.00 0.00 73 1019.7
20260906095854 47 154 0.0 0.0 0.00 0.00 0.00 72 1019.5
20260906095350 47 131 0.0 0.0 0.00 0.00 0.00 71 1019.7
20260906094849 48 125 0.0 0.9 0.00 0.00 0.00 71 1019.6
20260906094345 48 124 0.0 0.0 0.00 0.00 0.00 72 1019.5
20260906093841 48 156 0.0 0.0 0.00 0.00 0.00 72 1019.2
20260906093337 48 154 0.0 0.9 0.00 0.00 0.00 71 1019.6
20260906092831 48 92 0.9 0.9 0.00 0.00 0.00 73 1019.7
20260906092331 48 127 0.0 0.9 0.00 0.00 0.00 74 1019.4
20260906091827 48 138 0.0 0.0 0.00 0.00 0.00 73 1019.4
20260906091323 48 151 0.0 0.0 0.00 0.00 0.00 72 1019.2
20260906090819 48 157 0.9 1.7 0.00 0.00 0.00 71 1019.2
20260906090318 49 140 0.0 0.9 0.00 0.00 0.00 69 1019.2
20260906085818 50 271 0.9 0.9 0.00 0.00 0.00 64 1019.0
20260906085317 50 185 0.0 0.0 0.00 0.00 0.00 66 1018.9
20260906084812 50 146 0.0 0.0 0.00 0.00 0.00 64 1019.0
20260906084312 50 125 0.0 0.0 0.00 0.00 0.00 63 1018.8
20260906083807 50 166 0.0 0.9 0.00 0.00 0.00 65 1018.7
20260906083303 50 112 0.0 0.9 0.00 0.00 0.00 66 1018.9
20260906082757 49 218 0.9 0.9 0.00 0.00 0.00 68 1018.9
20260906082252 49 211 0.9 1.7 0.00 0.00 0.00 68 1018.7
20260906081748 49 159 0.0 0.0 0.00 0.00 0.00 67 1018.8
20260906081243 49 157 0.9 1.7 0.00 0.00 0.00 67 1018.5
20260906080739 50 280 0.9 1.7 0.00 0.00 0.00 66 1018.8
20260906080236 49 168 0.0 0.0 0.00 0.00 0.00 67 1018.8
20260906075736 49 158 0.0 0.0 0.00 0.00 0.00 68 1018.7
20260906075236 49 158 0.0 0.0 0.00 0.00 0.00 69 1018.8
20260906074731 50 151 0.0 0.9 0.00 0.00 0.00 69 1018.5
20260906074230 49 151 0.0 0.0 0.00 0.00 0.00 68 1018.7
20260906073730 49 158 0.0 0.9 0.00 0.00 0.00 70 1018.9
20260906073225 48 115 0.0 0.0 0.00 0.00 0.00 71 1018.8
20260906072721 49 165 0.0 0.0 0.00 0.00 0.00 72 1018.7
20260906072216 49 144 0.0 0.0 0.00 0.00 0.00 72 1018.5
20260906071712 49 124 0.9 0.9 0.00 0.00 0.00 69 1018.7
20260906071212 49 163 0.0 0.9 0.00 0.00 0.00 69 1018.4
20260906070708 50 124 0.0 0.0 0.00 0.00 0.00 70 1018.5
20260906070204 50 111 0.0 0.9 0.00 0.00 0.00 69 1018.5
20260906065703 50 173 0.0 0.9 0.00 0.00 0.00 67 1018.4
20260906065159 50 186 2.6 2.6 0.00 0.00 0.00 67 1018.4
20260906064654 49 175 0.0 0.9 0.00 0.00 0.00 68 1018.5
20260906064150 49 116 0.0 0.9 0.00 0.00 0.00 69 1018.4
20260906063645 50 103 0.0 0.0 0.00 0.00 0.00 70 1018.5
20260906063140 50 136 0.0 0.0 0.00 0.00 0.00 70 1018.5
20260906062636 51 148 0.0 0.0 0.00 0.00 0.00 69 1018.5
20260906062135 51 122 0.0 0.0 0.00 0.00 0.00 66 1018.9
20260906061631 51 152 0.0 0.9 0.00 0.00 0.00 65 1018.5
20260906061131 51 123 0.0 0.9 0.00 0.00 0.00 66 1018.7
20260906060628 51 145 0.0 0.9 0.00 0.00 0.00 68 1018.7
20260906060125 51 149 0.0 0.0 0.00 0.00 0.00 67 1018.9
20260906055620 51 144 0.0 0.9 0.00 0.00 0.00 67 1019.0
20260906055115 52 136 0.0 0.0 0.00 0.00 0.00 67 1018.7
20260906054610 53 120 0.0 0.0 0.00 0.00 0.00 67 1018.8
20260906054105 53 124 0.0 0.0 0.00 0.00 0.00 61 1018.7
20260906053602 52 208 0.9 0.9 0.00 0.00 0.00 63 1018.9
20260906053057 52 176 0.0 0.9 0.00 0.00 0.00 65 1018.9
20260906052552 52 137 0.0 0.9 0.00 0.00 0.00 66 1018.8
20260906052049 52 126 0.0 0.9 0.00 0.00 0.00 67 1018.8
20260906051544 52 92 0.9 0.9 0.00 0.00 0.00 68 1018.5
20260906051040 53 72 0.9 0.9 0.00 0.00 0.00 66 1018.9
20260906050535 53 134 0.0 0.0 0.00 0.00 0.00 67 1019.1
20260906050030 54 115 0.0 0.0 0.00 0.00 0.00 62 1019.0
20260906045528 54 160 0.0 0.9 0.00 0.00 0.00 63 1019.0
20260906045024 55 120 0.0 0.0 0.00 0.00 0.00 63 1019.0
20260906044520 55 148 0.0 0.0 0.00 0.00 0.00 61 1019.0
20260906044015 55 197 0.0 0.9 0.00 0.00 0.00 59 1019.1
20260906043510 55 186 0.9 1.7 0.00 0.00 0.00 62 1018.9
20260906043007 54 140 0.0 0.9 0.00 0.00 0.00 63 1019.0
20260906042505 55 120 0.0 0.0 0.00 0.00 0.00 63 1018.9
20260906042005 56 132 0.0 0.0 0.00 0.00 0.00 62 1018.9
20260906041502 56 129 0.0 0.0 0.00 0.00 0.00 58 1019.1
20260906041001 56 105 0.0 1.7 0.00 0.00 0.00 59 1018.9
20260906040456 56 261 0.0 0.9 0.00 0.00 0.00 60 1019.0
20260906035951 56 169 0.0 0.9 0.00 0.00 0.00 60 1018.9
20260906035446 56 149 0.0 0.9 0.00 0.00 0.00 60 1019.0
20260906034937 56 151 0.0 0.9 0.00 0.00 0.00 60 1018.9
20260906034437 57 106 0.0 0.0 0.00 0.00 0.00 59 1019.0
20260906033932 58 119 0.0 0.0 0.00 0.00 0.00 59 1018.8
20260906033432 59 115 0.0 0.0 0.00 0.00 0.00 57 1018.8
20260906032928 59 144 0.0 0.0 0.00 0.00 0.00 53 1018.9
20260906032425 59 135 0.0 1.7 0.00 0.00 0.00 54 1018.7
20260906031924 58 140 0.0 0.0 0.00 0.00 0.00 56 1018.8
20260906031420 58 131 0.0 0.0 0.00 0.00 0.00 57 1018.8
20260906030915 59 127 0.0 0.0 0.00 0.00 0.00 56 1018.7
20260906030410 60 117 0.0 0.0 0.00 0.00 0.00 54 1018.4
20260906025905 60 131 0.0 0.0 0.00 0.00 0.00 54 1018.5
20260906025405 61 118 0.0 0.0 0.00 0.00 0.00 48 1018.4
20260906024903 61 118 0.0 0.0 0.00 0.00 0.00 48 1018.3
20260906024403 62 123 0.0 0.0 0.00 0.00 0.00 47 1018.2
20260906023858 62 110 0.0 0.9 0.00 0.00 0.00 49 1018.5
20260906023355 63 118 0.0 0.0 0.00 0.00 0.00 47 1018.2
20260906022854 63 129 0.0 0.0 0.00 0.00 0.00 44 1017.8
20260906022349 64 120 0.0 0.0 0.00 0.00 0.00 44 1018.1
20260906021845 65 120 0.0 0.0 0.00 0.00 0.00 42 1018.0
20260906021344 66 121 0.0 0.0 0.00 0.00 0.00 40 1017.6
20260906020839 67 121 0.0 0.0 0.00 0.00 0.00 38 1017.8
20260906020339 67 136 0.0 0.9 0.00 0.00 0.00 38 1018.0
20260906015833 67 133 0.0 0.9 0.00 0.00 0.00 40 1017.8
20260906015333 68 102 0.0 0.0 0.00 0.00 0.00 38 1017.6
20260906014832 69 138 0.0 0.0 0.00 0.00 0.00 40 1017.8
20260906014327 71 122 0.0 0.0 0.00 0.00 0.00 41 1017.6
20260906013824 73 119 0.0 0.0 0.00 0.00 0.00 39 1017.5
20260906013319 75 113 0.0 0.0 0.00 0.00 0.00 32 1017.6
20260906012814 77 114 0.0 0.0 0.00 0.00 0.00 27 1017.6
20260906012315 79 136 0.0 0.0 0.00 0.00 0.00 27 1017.7
20260906011809 80 136 0.0 0.0 0.00 0.00 0.00 26 1017.6
20260906011309 82 104 0.0 1.7 0.00 0.00 0.00 24 1017.5
20260906010806 82 199 0.9 1.7 0.00 0.00 0.00 23 1017.7
20260906010302 82 162 0.9 1.7 0.00 0.00 0.00 24 1017.7
20260906005756 83 279 1.7 2.6 0.00 0.00 0.00 22 1017.6
20260906005255 84 262 0.9 1.7 0.00 0.00 0.00 22 1017.8
20260906004754 84 105 0.9 2.6 0.00 0.00 0.00 22 1017.6
20260906004250 85 214 0.9 1.7 0.00 0.00 0.00 21 1017.6
20260906003750 85 156 0.9 1.7 0.00 0.00 0.00 20 1017.6
20260906003245 85 144 0.9 1.7 0.00 0.00 0.00 21 1017.6
20260906002740 86 116 0.9 1.7 0.00 0.00 0.00 21 1017.5
20260906002240 86 166 0.9 0.9 0.00 0.00 0.00 21 1017.4
20260906001736 85 195 1.7 1.7 0.00 0.00 0.00 20 1017.7
20260906001231 86 183 0.9 2.6 0.00 0.00 0.00 19 1017.5
20260906000726 86 184 3.5 5.2 0.00 0.00 0.00 18 1017.4
20260906000226 87 186 0.9 3.5 0.00 0.00 0.00 18 1017.4
20260905235721 87 167 0.9 5.2 0.00 0.00 0.00 18 1017.5
20260905235215 86 238 0.9 2.6 0.00 0.00 0.00 19 1017.7
20260905234711 86 248 1.7 3.5 0.00 0.00 0.00 18 1017.5
20260905234206 86 245 1.7 5.2 0.00 0.00 0.00 17 1017.5
20260905233702 87 125 1.7 7.0 0.00 0.00 0.00 19 1017.5
20260905233201 86 215 2.6 7.8 0.00 0.00 0.00 17 1017.5
20260905232656 86 203 1.7 3.5 0.00 0.00 0.00 20 1017.5
20260905232152 85 195 2.6 6.1 0.00 0.00 0.00 19 1017.3
20260905231647 85 259 3.5 6.1 0.00 0.00 0.00 18 1017.5
20260905231143 86 207 3.5 7.8 0.00 0.00 0.00 17 1017.3
20260905230639 88 279 4.3 7.0 0.00 0.00 0.00 16 1017.4
20260905230137 88 198 3.5 5.2 0.00 0.00 0.00 16 1017.4
20260905225636 88 245 1.7 3.5 0.00 0.00 0.00 17 1017.5
20260905225131 88 314 1.7 5.2 0.00 0.00 0.00 17 1017.4
20260905224630 88 151 1.7 7.0 0.00 0.00 0.00 17 1017.5
20260905224130 88 178 1.7 5.2 0.00 0.00 0.00 16 1017.3